Theta_e
344 345 344 343 343 339 340 341 341 341 341 343 343 343 343 343 344 342 344 346 347 346 347 347 347 347 349 348 348 349 351 352 352 352 351 351 352 351 352 350 350 350 353 353 353 354 356 354 355 355 356 357 354 353 351 349 353 354 351 351 350 347 346 349 349 348 344 347 350 349 350 350 349 350 350 351 351 351 350 350 351 351 351 352 353
345 344 344 343 342 341 338 340 342 338 339 341 341 342 342 342 342 342 341 344 346 346 347 348 348 348 347 347 348 348 349 351 350 350 350 350 351 350 350 349 349 349 353 354 356 353 351 351 352 352 353 354 355 356 353 356 350 348 347 346 348 346 346 349 349 350 345 344 343 345 346 347 349 350 347 350 351 351 349 352 353 351 350 352 354
343 343 343 342 341 341 336 339 340 340 339 340 341 341 341 340 341 340 339 342 344 346 347 347 347 349 348 347 348 347 348 350 350 351 351 349 349 348 349 347 347 347 349 354 353 354 354 353 352 354 354 356 353 350 349 347 348 347 348 345 344 347 350 354 352 351 347 346 346 341 340 339 345 344 347 349 350 351 351 351 351 347 347 350 352
340 341 341 342 341 341 337 337 339 339 339 339 340 340 340 341 340 338 339 342 344 346 349 348 348 348 350 351 348 349 346 349 347 347 345 344 343 344 345 346 346 346 348 348 353 354 355 355 354 354 355 356 352 349 348 347 349 348 346 348 348 347 346 347 353 350 349 343 337 338 338 337 333 337 341 346 349 349 350 349 347 344 347 348 349
340 340 340 341 340 340 338 336 338 338 338 338 339 339 340 339 339 337 338 341 343 347 349 347 349 348 348 350 354 348 346 343 343 342 341 344 347 345 344 346 346 346 348 349 353 353 355 356 356 355 355 354 352 350 348 348 348 348 351 353 352 347 346 346 349 345 346 344 340 336 335 333 332 336 340 341 346 345 348 348 344 343 344 346 345
342 340 340 341 341 340 340 336 336 337 338 339 339 340 340 339 339 337 338 340 342 344 347 346 348 344 342 342 341 341 340 340 337 337 338 340 342 347 348 347 347 349 349 350 351 356 356 356 357 355 354 354 352 351 349 348 351 351 349 349 347 349 349 343 337 340 342 339 340 340 340 335 333 337 337 331 340 345 347 345 343 341 343 344 345
344 342 342 341 341 340 340 337 335 336 338 339 339 339 339 339 339 337 337 339 341 344 346 348 344 343 342 341 341 340 338 338 339 339 339 340 345 347 348 349 350 349 351 352 352 356 358 358 358 356 354 352 355 353 349 351 348 345 345 342 342 345 344 340 334 334 338 337 338 337 339 340 339 335 328 331 328 336 344 338 339 340 341 342 343
342 342 341 342 342 341 340 340 336 336 338 338 337 338 338 338 338 336 337 341 341 343 344 345 343 342 341 340 342 339 339 340 340 341 340 347 347 347 348 349 351 352 352 354 354 355 358 357 356 354 352 349 355 352 352 347 343 343 344 342 342 343 340 336 334 334 332 331 336 334 335 336 336 335 332 330 330 327 330 336 338 338 340 341 343
342 343 342 342 342 342 342 341 338 337 337 336 337 337 338 337 338 337 336 340 340 342 343 343 345 342 341 340 341 344 341 341 347 354 353 350 346 345 346 348 351 352 354 355 355 355 359 358 354 352 351 350 361 353 346 342 341 341 341 340 339 338 340 337 335 333 332 330 331 331 332 331 333 332 332 332 330 327 328 328 330 336 337 340 343
343 344 345 343 344 343 342 342 339 336 336 337 337 337 337 336 336 335 336 338 339 341 343 341 343 345 340 341 341 343 348 347 348 344 346 349 346 345 345 347 347 350 352 353 354 354 353 351 350 350 350 361 355 348 344 342 341 340 339 339 338 336 335 336 334 333 333 332 331 330 329 329 329 329 330 329 330 331 325 326 329 329 329 335 342
341 342 345 344 345 345 342 340 339 336 335 336 336 336 335 334 334 335 336 338 340 340 341 340 341 342 340 341 342 342 345 347 346 344 345 348 346 343 343 344 347 347 351 353 352 351 350 356 352 352 361 357 349 344 343 341 340 338 337 336 336 335 333 332 332 332 332 332 330 330 328 328 327 326 326 328 327 326 326 327 329 332 331 332 338
341 342 344 344 343 344 344 340 339 334 334 335 335 336 335 333 333 334 335 338 338 340 340 339 339 341 341 341 342 343 345 346 345 344 342 343 345 346 346 344 344 344 348 349 350 349 354 350 364 356 351 346 344 344 343 341 340 338 336 335 334 334 335 333 331 330 330 330 330 330 329 330 330 329 330 330 328 328 327 326 328 330 332 334 337
340 341 343 344 342 342 342 341 339 333 333 334 334 335 334 333 333 333 334 337 338 339 339 339 339 341 341 341 342 344 345 346 345 344 343 343 343 345 345 344 344 343 344 345 347 347 353 352 357 350 347 346 345 343 342 341 338 336 334 333 333 333 332 332 331 330 330 329 329 331 331 330 330 332 332 331 331 331 329 327 329 330 327 329 334
340 341 342 343 342 342 343 342 339 335 332 333 334 335 334 332 333 333 334 337 338 338 339 338 339 341 342 342 342 346 345 345 345 344 345 345 345 345 344 343 344 343 343 345 345 345 353 359 351 346 346 345 345 344 342 340 338 335 334 333 332 333 333 332 331 331 331 331 331 331 331 331 331 333 332 332 331 330 329 327 327 328 329 327 331
340 340 342 342 342 343 342 342 340 336 332 333 333 334 333 332 332 334 334 336 338 338 338 338 339 340 342 342 343 345 346 348 347 349 350 349 347 346 346 343 344 343 343 345 355 358 355 349 345 345 344 344 344 342 339 339 339 337 336 335 334 332 332 333 331 331 330 330 331 331 332 331 331 333 332 332 332 332 330 330 328 324 325 327 326
340 340 341 343 343 343 343 342 341 337 332 332 333 334 333 332 332 334 334 336 338 339 338 338 339 341 342 342 343 346 351 350 352 356 357 351 348 347 346 345 343 343 343 357 358 353 347 345 344 343 342 341 340 339 337 336 335 334 334 334 334 335 332 332 331 331 331 331 331 332 332 331 332 332 333 333 333 333 333 332 331 328 323 322 325
339 340 341 342 343 343 343 342 342 338 332 332 333 334 334 333 332 333 334 336 337 340 338 339 339 341 342 342 342 345 347 349 350 351 354 355 351 347 346 346 345 345 352 356 350 348 345 344 343 341 341 340 339 338 336 336 336 334 331 332 331 332 334 332 332 332 332 332 332 332 332 332 332 333 333 334 334 335 334 334 333 331 329 324 322
339 340 341 342 343 343 343 343 342 340 334 332 333 334 334 334 333 333 334 335 337 339 339 340 341 342 343 344 343 344 346 349 350 351 352 354 354 355 352 350 347 346 356 351 345 344 346 345 342 340 339 337 336 335 334 334 334 333 332 332 331 332 332 332 334 332 332 333 333 333 333 332 333 333 333 334 335 335 335 334 334 333 333 329 327
338 339 340 341 342 342 342 342 343 341 336 333 334 334 334 334 334 334 334 336 338 339 341 342 343 344 345 346 345 346 347 348 351 353 353 352 350 348 347 348 345 354 355 348 345 343 342 341 341 339 338 337 335 335 335 334 334 333 333 331 332 332 331 331 332 333 333 332 332 332 333 332 333 333 334 335 336 336 335 335 335 335 334 332 329
337 339 340 341 342 343 342 342 342 340 335 334 334 334 333 334 335 335 335 337 339 340 342 343 344 345 346 348 349 349 350 350 351 352 352 351 350 347 349 352 352 355 349 345 343 342 341 340 339 338 336 335 335 334 334 333 333 333 331 331 330 331 331 331 331 332 332 331 332 332 333 333 333 334 334 335 335 336 337 336 335 335 335 334 333
337 339 340 341 342 343 343 343 343 340 336 334 334 333 333 334 334 335 334 335 338 339 342 344 346 346 348 348 349 350 350 352 352 352 351 351 350 354 351 354 353 349 345 343 342 341 341 340 339 338 335 335 334 333 333 333 333 331 331 331 330 330 330 330 333 331 331 332 333 333 333 334 335 335 334 335 335 335 336 336 336 335 334 334 333
337 339 340 341 342 343 343 343 343 339 334 333 334 334 333 333 334 334 335 336 338 340 342 345 348 348 347 348 350 351 352 352 351 350 351 350 348 352 354 352 348 346 344 342 342 341 341 340 338 336 334 334 334 334 332 332 332 332 332 332 330 330 330 329 330 330 331 331 332 334 333 334 336 335 335 334 334 334 334 334 334 334 333 334 335
338 339 341 342 343 343 343 342 341 339 334 333 334 333 333 333 334 335 334 336 340 342 344 346 348 348 348 349 351 351 351 350 350 349 350 349 346 352 353 348 345 344 345 343 342 340 340 339 337 335 334 333 333 332 332 332 331 331 331 331 331 331 331 330 329 330 330 331 331 333 333 334 335 335 334 334 334 334 334 333 333 334 333 334 335
340 341 344 343 345 348 348 341 340 338 333 332 333 334 333 334 334 335 335 336 340 343 345 346 348 349 349 350 350 351 350 350 349 349 349 348 349 352 351 346 344 344 343 343 341 340 339 338 335 334 333 333 332 332 331 332 331 331 330 330 330 330 330 330 330 331 331 330 330 331 331 334 336 335 334 333 333 333 333 333 332 333 333 332 333
339 339 341 342 342 342 341 342 340 338 333 332 333 333 333 334 335 336 336 338 341 344 345 346 347 349 349 349 350 350 349 348 348 347 347 348 351 350 348 345 344 343 343 342 341 340 338 337 334 333 332 332 332 332 332 331 331 331 331 331 331 330 329 329 329 330 333 330 331 331 332 334 336 336 335 332 332 332 332 332 331 331 331 331 332
337 338 339 339 340 341 343 344 343 339 334 333 334 333 334 334 336 338 337 339 342 345 346 346 347 348 348 348 349 349 349 349 348 347 346 350 351 349 347 346 345 343 343 342 340 339 337 335 334 333 332 332 333 332 332 332 332 332 332 332 332 331 329 329 329 329 330 331 332 333 333 334 337 337 335 333 333 332 332 332 331 330 330 331 331
336 337 338 338 339 340 339 340 341 342 339 336 336 336 335 336 337 339 340 340 343 346 347 347 348 347 347 348 348 349 349 349 350 347 348 350 350 348 346 345 345 343 342 340 340 339 338 335 334 333 332 332 332 332 332 332 331 331 332 331 330 329 329 329 329 331 331 332 333 334 335 336 338 340 337 334 334 333 333 332 332 330 330 330 331
335 335 336 337 337 339 338 339 341 341 342 339 338 338 338 338 338 341 342 341 343 346 347 348 348 348 348 348 348 349 349 349 349 349 350 350 349 347 345 345 345 342 341 341 340 339 337 335 334 333 333 334 333 332 333 333 333 333 333 331 331 330 329 329 330 330 330 330 331 333 336 338 340 343 342 337 337 335 335 333 333 332 330 330 329
333 333 334 336 335 338 338 339 340 341 341 342 341 341 341 341 341 342 344 342 344 346 347 348 348 348 348 349 349 349 348 349 352 349 350 349 347 346 345 344 344 343 342 341 340 338 336 335 334 334 334 334 333 334 334 334 333 333 332 331 330 330 329 329 329 328 328 329 329 330 334 340 343 343 343 343 343 340 337 335 334 334 331 329 329
332 333 334 336 337 339 339 339 339 340 341 340 342 344 341 341 341 342 343 344 344 345 347 348 348 348 349 350 349 350 347 349 350 349 349 348 346 344 343 343 342 341 341 340 339 337 336 334 333 333 334 334 334 335 339 340 339 334 332 331 330 329 329 329 329 329 329 329 328 328 333 340 342 343 345 343 343 342 342 341 338 335 333 331 329
333 334 335 335 336 338 339 339 339 340 341 340 340 342 342 344 344 343 344 345 345 344 346 347 347 349 349 349 349 348 347 349 349 349 348 346 344 344 342 341 340 339 338 339 337 336 335 334 333 333 333 334 335 337 341 340 340 339 333 331 329 327 327 327 328 328 329 330 328 329 329 334 337 339 341 344 343 342 341 341 340 340 339 335 331
333 335 337 337 335 336 338 339 341 341 343 343 341 342 343 342 343 345 347 347 345 345 345 346 348 349 349 349 349 349 348 349 349 348 347 345 344 343 341 339 338 337 337 338 335 335 334 334 334 334 334 335 336 342 339 340 340 338 337 330 327 326 326 326 326 326 327 328 329 329 330 331 333 341 336 335 340 342 341 341 341 339 338 339 338
333 335 337 338 338 338 339 341 342 343 343 343 343 343 344 343 343 344 348 347 346 345 345 345 347 348 349 350 351 350 349 349 349 347 346 344 343 341 340 338 336 337 337 335 335 333 333 334 334 333 334 336 339 343 337 340 338 337 335 330 325 325 327 325 325 324 324 325 327 330 331 332 331 339 335 334 334 335 341 341 340 340 340 338 336
335 336 337 339 340 341 341 342 343 344 345 346 347 346 347 349 348 347 346 346 346 346 345 346 346 347 349 351 352 351 349 349 348 346 344 343 342 340 339 338 337 336 334 334 333 333 333 333 333 333 334 335 336 343 338 337 335 334 332 328 324 325 325 325 325 326 326 325 325 327 328 332 332 335 334 333 333 332 333 334 334 334 335 336 336
334 336 337 338 340 341 341 342 343 344 345 343 343 347 348 348 347 345 347 346 347 346 346 346 345 347 350 352 352 351 349 349 347 345 343 342 341 340 338 337 335 334 332 332 331 331 332 333 333 333 332 331 335 339 335 334 331 330 331 329 325 325 325 325 325 325 325 326 325 326 328 330 333 338 341 336 332 332 332 331 331 330 331 332 334
335 336 337 338 339 340 340 340 344 344 344 345 346 349 347 345 343 342 345 347 346 345 346 346 346 348 351 353 352 351 350 348 346 344 343 341 341 339 337 337 336 333 332 332 331 332 332 332 332 331 331 330 336 335 333 331 329 330 331 327 325 326 326 326 326 326 327 328 327 327 329 331 333 335 337 336 334 333 331 329 328 328 328 329 330
336 338 338 339 341 342 342 342 342 342 342 343 344 347 346 344 341 343 346 343 345 346 346 346 347 348 352 354 353 351 349 347 345 343 342 341 340 339 338 338 334 332 330 329 329 331 332 331 330 330 330 331 336 333 328 327 327 327 328 326 326 326 326 326 326 326 327 329 329 327 328 329 331 333 333 329 333 331 328 327 327 326 326 328 328
337 338 339 339 340 343 345 343 342 342 342 342 342 343 343 341 341 342 342 341 342 344 346 347 347 348 352 355 354 352 350 348 345 344 343 342 341 340 338 338 334 330 329 329 329 330 330 331 330 329 330 331 333 334 326 325 324 326 329 326 326 326 325 326 325 325 327 328 334 333 329 328 330 332 328 327 330 332 327 327 326 327 327 327 327
338 338 338 338 339 343 344 345 343 343 344 343 343 342 343 342 343 344 345 345 345 345 346 346 347 349 352 356 355 353 351 348 345 344 344 343 341 340 339 338 334 332 330 329 330 329 328 329 330 329 334 332 332 333 323 323 323 326 329 326 326 326 325 323 324 324 325 326 328 334 334 333 331 329 323 325 327 329 327 326 327 326 325 325 325
338 339 340 340 342 343 344 343 342 342 344 344 344 343 342 340 341 341 342 343 343 345 346 348 348 350 352 356 356 354 351 349 347 346 345 344 343 341 338 335 332 331 329 329 330 328 327 327 329 330 334 331 331 332 328 321 322 324 326 327 326 325 324 322 322 324 324 325 326 327 330 325 321 321 320 321 323 326 327 326 328 327 326 324 326
339 339 346 341 341 342 342 343 342 343 343 343 343 341 340 341 341 340 340 343 346 347 347 347 348 350 352 355 357 355 352 351 349 347 346 344 342 340 337 333 330 329 329 328 328 327 327 326 327 329 332 329 331 331 330 320 320 322 325 329 326 325 323 321 323 325 322 323 324 326 328 326 319 319 318 318 319 323 329 327 328 328 329 330 328
351 345 346 338 339 340 340 341 342 342 342 342 341 339 339 339 340 339 340 342 346 348 349 348 349 350 351 354 357 356 355 352 350 348 345 343 341 339 336 332 330 328 328 327 327 328 326 325 326 329 330 328 334 335 329 323 320 319 321 325 328 327 325 322 321 320 320 323 324 326 326 325 319 318 318 318 319 322 329 334 330 323 324 328 329
347 348 351 342 337 337 338 339 340 340 340 340 340 339 339 340 338 340 342 344 347 349 350 350 351 351 352 353 356 356 355 353 350 348 345 342 340 337 334 332 329 328 327 326 326 325 324 324 325 328 328 327 330 336 333 329 323 318 318 321 324 329 325 327 321 321 322 324 323 326 329 327 317 315 315 318 320 325 333 327 320 324 326 330 332
343 343 346 348 340 338 336 335 335 340 341 340 339 339 340 341 341 344 345 349 351 352 353 352 352 352 353 353 355 356 356 354 351 348 345 341 339 337 334 331 329 328 326 325 324 324 324 323 323 325 326 326 328 334 334 332 328 320 317 317 319 321 324 324 325 323 323 323 323 325 325 315 312 311 315 318 323 331 328 319 322 327 332 334 331
342 340 344 343 340 338 342 342 340 342 342 340 339 338 340 340 342 345 347 349 352 353 353 353 353 353 353 354 355 356 356 354 351 347 343 340 338 336 332 331 329 328 326 325 324 325 323 323 324 324 324 325 327 332 334 334 332 328 320 317 320 321 321 320 325 325 327 325 324 316 312 318 317 313 315 321 327 329 322 322 325 334 336 330 331
342 344 343 341 339 339 338 340 342 342 338 341 343 340 338 340 343 346 349 352 353 353 353 353 354 354 354 355 355 356 355 353 349 347 345 342 339 336 333 330 329 328 327 325 324 324 324 324 323 324 324 324 326 329 332 334 335 335 329 322 321 325 329 327 329 326 329 327 320 315 319 324 329 331 332 333 333 335 332 334 335 334 329 330 328
338 340 347 342 338 335 334 336 336 337 337 338 338 340 342 343 344 348 351 353 355 354 354 354 354 354 355 356 356 355 354 351 348 346 344 342 340 337 334 331 330 327 326 326 325 325 324 324 323 323 324 324 326 328 329 333 335 335 331 328 327 328 333 331 332 329 332 328 326 330 330 328 329 333 337 338 338 338 334 329 327 329 329 329 328
339 340 345 342 342 342 340 339 336 336 338 339 338 338 340 344 348 353 353 352 351 352 352 353 354 354 355 356 356 354 350 348 346 345 343 341 339 338 335 332 330 328 327 326 325 325 324 324 323 323 323 324 325 327 328 330 332 332 328 326 325 327 331 328 326 326 327 325 328 333 329 331 333 331 329 327 328 332 332 330 326 326 330 335 333
338 339 343 341 342 342 341 341 342 342 340 339 339 341 344 343 345 347 350 349 349 350 350 351 352 354 354 355 356 354 350 349 346 345 343 340 339 338 336 335 334 333 331 328 326 325 326 326 325 323 323 323 325 325 327 326 332 324 327 323 322 324 328 326 327 322 325 325 327 329 330 329 329 332 331 331 328 327 328 326 325 324 323 326 327
340 340 340 341 343 341 341 341 342 341 342 341 340 340 341 343 343 342 343 344 347 346 346 345 345 348 348 348 348 347 341 340 339 337 331 329 324 325 331 335 333 333 328 323 321 328 328 327 325 326 326 325 324 327 321 315 313 311 312 313 317 315 316 324 324 319 328 323 325 324 325 326 327 328 328 328 327 326 326 325 327 328 327 325 326
341 340 340 340 341 342 342 342 341 341 341 341 343 342 340 341 341 341 341 341 345 344 343 343 342 341 341 340 338 338 338 337 339 336 332 332 330 323 311 321 325 329 320 313 311 316 318 323 326 324 325 320 318 314 311 310 308 307 307 307 306 306 308 312 313 324 327 322 323 323 324 325 328 327 328 328 327 326 327 325 325 326 326 328 327
Wind_Speed
8 7 4 5 5 10 10 9 10 10 9 10 10 10 10 10 8 9 8 7 7 7 6 6 6 4 2 5 6 5 3 3 4 4 5 5 5 5 5 6 6 6 6 5 6 5 6 5 5 6 5 4 5 6 5 6 4 4 6 5 5 5 5 4 4 4 4 6 4 6 7 6 6 6 3 4 5 4 3 4 4 4 5 6 4
5 6 6 4 5 5 9 9 9 11 9 9 10 11 11 10 11 10 6 7 8 9 8 7 6 6 6 6 5 5 4 4 5 5 5 5 5 5 5 6 6 6 5 5 5 5 5 5 5 6 5 5 5 5 5 4 5 5 4 5 2 3 4 3 4 5 3 5 7 8 4 4 5 5 4 7 5 5 4 5 4 6 7 6 6
9 9 8 5 6 5 7 9 10 12 11 12 11 10 10 10 9 7 8 9 8 8 7 7 6 5 5 4 6 4 4 5 5 5 3 5 5 6 6 6 6 6 6 5 5 5 5 5 6 5 5 4 5 6 5 7 5 6 5 4 5 2 3 2 5 5 4 5 5 6 7 9 4 4 5 11 10 8 5 6 7 8 8 7 6
11 11 11 8 7 6 6 8 9 9 9 10 10 11 9 8 7 8 8 8 7 8 9 8 7 6 4 2 2 3 2 2 3 3 4 5 7 7 6 6 6 7 6 5 5 5 5 5 5 5 5 3 3 5 6 7 5 5 5 4 2 4 4 3 2 6 5 7 8 4 6 4 6 2 6 6 4 6 6 6 6 6 6 6 5
12 12 12 10 9 9 8 8 9 10 10 10 11 11 9 11 10 10 9 9 8 8 9 6 4 3 2 1 2 1 2 1 1 3 4 5 6 5 7 5 5 6 5 5 5 5 4 4 5 5 4 3 3 4 5 5 3 2 3 3 4 2 4 2 2 7 7 6 3 4 3 2 2 6 8 5 6 8 9 8 8 9 9 8 7
13 15 14 12 10 8 7 8 10 11 11 10 11 12 11 10 9 8 7 7 8 9 8 7 7 7 5 5 4 3 3 3 5 6 6 4 5 4 5 4 4 4 4 4 5 4 4 4 4 4 3 3 3 4 4 2 3 4 4 3 4 4 2 3 4 6 6 6 6 2 2 4 7 6 5 5 7 4 3 8 9 8 7 7 7
9 12 13 13 11 9 9 9 10 11 11 11 10 11 12 11 10 10 9 8 8 7 8 7 6 6 8 8 7 7 7 5 4 4 5 5 4 6 6 4 3 4 4 4 4 4 4 4 3 3 2 3 4 3 1 3 3 4 3 4 4 3 4 4 5 5 5 5 7 6 5 4 4 4 3 4 5 4 6 7 7 8 7 6 7
10 11 13 13 12 12 11 10 9 10 10 10 11 10 11 11 10 10 8 8 8 7 8 8 9 7 7 6 6 6 6 7 5 4 3 3 4 6 5 5 3 4 4 4 4 4 4 4 2 2 3 4 2 2 3 3 3 4 5 4 4 4 5 4 4 4 4 4 5 6 7 5 5 4 3 2 4 6 6 6 6 9 8 4 6
11 10 12 14 13 12 11 10 9 9 10 10 11 11 11 11 11 10 9 8 7 9 9 9 8 8 8 7 5 6 6 6 3 2 3 3 5 5 5 5 4 3 4 4 5 4 3 2 1 2 3 2 3 4 4 4 5 5 5 5 5 5 5 5 4 3 3 4 3 5 4 5 5 5 5 5 3 3 3 5 7 7 7 4 5
10 11 12 12 10 9 9 7 8 8 9 10 10 10 10 9 9 10 10 8 8 9 9 9 8 7 6 6 7 6 5 4 2 4 4 4 5 5 5 5 5 4 5 5 5 4 2 1 0 2 1 4 4 4 5 5 5 6 6 5 5 5 5 5 4 3 3 3 4 3 4 4 4 4 4 6 3 2 4 7 7 8 8 5 4
10 11 11 12 11 8 6 9 8 7 8 10 10 10 10 10 10 11 11 9 8 9 10 10 8 7 8 8 8 7 6 4 4 4 4 3 5 6 5 5 3 4 4 4 3 1 0 1 2 2 4 4 4 4 4 5 5 5 5 6 6 6 5 5 5 4 3 4 4 3 4 4 5 6 6 5 4 4 6 6 7 6 6 6 4
11 10 10 11 12 11 8 7 8 8 9 10 10 10 10 10 11 12 9 8 8 9 9 9 8 8 7 8 8 8 6 5 5 6 5 6 5 5 3 3 4 4 3 4 2 1 2 2 4 4 4 4 5 4 5 5 5 5 4 4 5 5 5 4 4 4 5 3 4 4 4 3 4 4 4 4 5 5 3 6 6 7 5 3 3
12 11 11 10 11 14 13 10 8 8 9 11 11 11 10 10 12 12 10 9 9 9 10 10 9 8 8 8 8 6 6 6 5 5 5 5 4 4 3 4 4 4 4 4 3 3 3 4 4 5 4 4 5 5 5 5 5 5 5 5 5 5 3 3 3 4 3 3 3 3 3 4 4 2 3 3 3 2 4 6 6 5 3 5 4
12 11 12 12 12 12 14 11 10 9 10 11 11 11 10 10 11 12 12 11 9 9 10 9 10 10 8 8 8 6 6 6 6 6 5 4 4 4 4 4 4 4 3 4 4 3 2 4 5 5 5 5 6 6 6 5 5 5 5 5 5 3 3 3 4 4 3 4 4 4 4 4 4 3 3 3 5 6 5 6 6 5 2 3 3
12 12 12 13 14 13 11 11 10 9 10 11 10 10 10 10 11 12 10 9 9 10 8 10 9 9 8 8 7 6 6 6 6 6 5 4 3 4 4 2 3 3 4 3 2 4 5 6 6 6 6 6 5 6 5 5 5 5 5 5 4 3 3 3 4 4 4 5 5 4 3 4 4 4 4 4 3 4 5 5 5 8 7 3 6
13 13 13 13 14 15 12 10 9 8 9 10 11 10 11 11 11 13 13 12 11 10 9 11 10 9 8 7 8 7 6 5 5 4 3 4 4 4 3 3 4 4 1 3 3 4 6 6 6 7 6 6 6 6 6 5 5 5 5 4 4 2 3 5 3 4 5 5 5 4 4 4 4 4 4 4 4 3 2 3 5 5 6 7 7
13 14 13 14 13 14 14 12 10 9 9 11 11 12 12 11 11 11 11 10 11 11 12 10 9 8 9 9 8 7 7 7 6 6 5 4 3 3 2 3 3 3 3 3 5 5 5 6 7 7 6 5 6 5 6 5 5 5 4 4 4 2 3 4 3 4 4 4 4 5 4 4 4 4 4 4 4 4 3 2 3 4 3 4 5
15 15 13 13 13 14 14 13 12 11 11 11 12 11 11 12 12 13 11 11 10 10 10 9 9 9 9 9 8 8 8 7 6 6 4 3 3 3 3 3 4 2 3 4 5 6 6 7 6 6 6 5 5 6 5 5 5 4 4 3 2 3 4 3 3 4 4 3 4 4 4 4 4 4 4 4 4 4 4 5 3 2 2 4 3
10 11 11 11 12 12 12 13 12 11 10 11 11 11 10 10 11 13 14 14 14 11 11 9 9 8 8 9 10 8 7 6 5 5 3 4 4 4 4 3 2 4 5 5 5 6 6 6 6 6 5 6 5 5 5 5 5 4 3 3 2 3 4 4 3 4 3 3 4 5 4 4 4 4 4 4 5 7 6 5 5 3 4 2 2
10 11 11 12 12 13 14 13 12 12 11 10 12 11 12 11 11 10 11 10 9 10 10 10 10 8 8 7 7 7 7 6 6 5 5 5 4 4 4 3 4 4 5 6 6 6 6 7 6 6 6 6 6 5 5 5 4 4 3 3 2 4 4 4 4 3 3 3 4 5 5 4 4 3 4 5 5 7 7 6 6 5 5 4 3
10 11 11 12 12 12 13 13 12 10 9 9 10 12 12 10 10 11 12 10 10 10 9 9 7 8 8 9 9 7 8 6 5 5 5 5 4 3 4 4 5 5 6 6 6 6 6 6 7 6 6 5 5 5 4 4 4 4 3 3 3 4 4 3 4 5 4 4 5 5 5 4 4 5 5 5 7 8 7 7 6 6 5 5 3
9 9 10 11 11 11 11 12 10 10 9 10 10 10 11 11 11 11 9 9 10 9 9 8 7 8 9 8 8 7 7 6 6 5 6 5 5 4 5 5 6 6 6 7 7 6 6 6 6 6 6 6 5 6 4 4 4 4 3 2 3 4 4 4 4 5 5 4 4 5 6 5 4 5 6 6 7 7 7 7 7 6 6 6 5
8 8 8 8 9 9 10 12 12 12 10 11 10 11 11 12 11 9 10 10 10 10 8 7 8 8 9 8 7 7 6 7 7 6 6 6 5 5 5 6 6 6 5 6 7 7 7 6 6 6 6 6 5 5 4 4 4 4 4 3 2 4 4 4 5 5 4 4 5 5 5 5 4 6 6 6 5 6 6 7 7 6 7 6 6
5 5 5 7 8 6 4 4 10 10 9 11 10 10 11 10 10 9 11 10 8 7 7 7 8 8 8 7 7 7 7 7 7 6 7 6 6 6 6 7 7 6 7 6 6 7 7 7 7 6 6 6 6 5 5 4 5 4 4 4 3 3 3 4 4 4 4 4 4 5 5 5 5 5 6 5 5 5 5 5 5 7 7 6 5
7 7 6 6 6 7 9 6 8 9 9 9 10 10 10 10 10 10 10 9 8 7 8 8 9 8 8 8 8 7 7 7 7 7 7 7 7 7 6 8 7 6 6 7 6 5 6 6 6 7 7 6 6 6 6 5 4 3 4 3 3 3 4 4 4 3 3 4 4 5 4 4 5 5 5 5 5 7 5 5 6 5 6 6 4
7 7 7 9 7 5 2 2 2 5 8 8 8 9 9 10 10 10 9 8 8 7 8 9 8 8 8 9 8 7 8 8 7 7 8 8 7 7 8 6 8 9 7 6 7 6 6 6 6 6 6 6 6 6 6 5 4 4 3 3 3 4 4 4 4 4 4 4 5 5 4 4 4 5 5 4 4 6 5 6 7 6 5 4 5
9 9 8 7 6 5 5 2 5 3 6 7 8 7 5 6 8 7 8 9 9 9 8 8 8 9 8 9 8 8 7 7 7 6 6 6 7 8 8 8 7 9 9 8 6 7 5 6 6 6 6 7 7 5 5 5 4 4 4 4 4 5 5 4 4 4 3 3 4 4 4 4 4 3 3 3 4 5 5 6 6 5 5 5 7
5 7 9 9 8 5 7 5 3 4 7 7 7 7 7 7 6 5 5 6 6 8 8 8 8 8 8 9 9 8 7 6 5 5 5 6 7 7 7 7 8 9 8 8 8 7 6 6 6 6 6 6 6 5 4 4 4 4 4 4 4 5 5 4 4 3 3 3 3 4 4 4 4 3 1 2 4 4 4 6 5 5 5 5 6
7 7 8 10 11 7 8 6 5 5 6 5 6 5 4 4 4 5 4 6 7 8 8 8 8 9 10 8 7 6 6 5 5 6 6 6 7 7 7 7 7 7 5 7 6 7 8 7 6 6 6 5 5 5 4 4 5 4 4 5 4 4 5 5 4 3 3 3 3 3 3 3 5 6 9 7 7 5 5 7 6 5 5 5 5
8 8 8 8 11 9 8 9 7 7 5 5 3 1 5 5 6 6 7 5 5 7 8 8 9 10 8 7 7 6 6 5 6 6 7 7 7 7 8 8 7 7 7 6 7 6 7 8 8 6 5 5 4 3 5 9 7 5 5 4 4 4 4 4 4 3 3 3 3 3 3 5 5 6 8 9 9 11 11 8 6 5 5 5 5
6 7 9 9 10 9 8 8 10 9 6 10 8 2 2 1 2 5 6 6 6 7 7 9 10 8 7 7 7 6 6 7 7 6 6 7 8 7 8 8 8 8 8 7 7 8 7 6 7 7 7 5 4 4 10 8 9 10 6 5 5 4 3 4 3 3 3 2 2 2 2 4 5 5 5 9 9 10 10 12 14 14 11 7 5
6 7 9 11 12 12 11 10 9 10 9 8 7 2 2 4 5 3 1 4 5 5 7 8 7 6 7 8 7 7 7 6 6 7 7 7 7 8 8 8 8 9 7 6 7 7 7 6 6 6 6 5 5 8 9 9 9 9 8 6 5 4 3 3 3 3 2 2 2 2 2 2 2 3 3 5 7 8 8 10 12 12 13 14 12
6 7 8 10 12 13 13 10 8 7 7 7 6 2 3 3 2 2 2 3 3 5 5 5 4 6 7 7 7 8 7 7 7 7 7 7 8 8 8 9 9 7 7 8 8 7 7 7 6 8 7 5 5 10 9 9 9 9 9 7 4 4 4 3 3 3 2 2 1 1 2 3 2 5 4 3 3 4 7 10 10 10 11 12 9
5 6 7 8 8 9 11 11 10 7 6 7 6 5 3 2 4 3 4 4 4 4 4 4 4 6 7 7 7 8 8 8 7 7 7 8 8 9 8 7 7 7 8 7 7 7 7 7 7 7 7 6 5 9 9 9 9 9 9 7 5 4 4 4 3 3 2 2 1 1 2 3 2 3 3 3 3 4 4 5 5 5 5 8 10
7 7 7 7 7 7 8 9 10 10 7 6 5 3 3 4 3 4 3 3 4 5 4 3 4 5 5 7 7 8 8 8 8 8 8 9 9 7 8 8 9 10 11 10 10 8 7 7 6 6 6 6 5 9 9 10 9 10 10 7 5 4 4 3 3 2 2 2 1 1 1 2 3 4 3 2 4 4 4 4 5 5 5 5 6
8 9 8 9 10 11 11 10 8 10 8 5 5 4 2 3 6 8 6 1 3 4 5 5 6 6 7 7 8 8 7 8 8 8 9 9 8 9 10 8 7 6 5 5 5 5 7 7 7 7 6 6 5 10 10 10 10 10 10 5 5 5 4 3 3 2 2 2 2 1 1 3 4 4 4 4 4 3 5 5 6 5 5 4 5
7 8 10 9 8 9 10 10 9 11 9 6 4 2 1 3 8 2 1 3 3 4 5 6 7 8 8 8 9 9 8 9 9 10 10 10 10 8 7 7 8 8 8 7 7 6 6 7 7 6 7 6 5 9 11 11 11 11 7 5 5 4 3 3 3 2 2 2 2 1 1 3 4 3 4 4 4 5 6 5 4 4 4 4 5
7 4 4 6 5 5 6 9 11 8 6 4 4 2 2 2 2 3 3 6 4 5 5 5 7 8 9 9 9 10 10 10 10 11 12 11 9 7 9 8 10 10 9 7 6 6 6 6 7 8 6 7 6 8 11 11 11 10 8 6 5 5 4 3 3 3 2 3 2 5 1 3 4 3 3 4 3 4 6 4 4 5 6 5 5
8 9 8 9 9 9 8 7 8 10 8 6 5 4 2 3 3 2 3 6 5 6 7 8 9 8 8 8 8 8 9 10 11 11 11 11 11 11 8 7 6 6 6 6 6 6 6 5 5 6 9 8 7 8 11 12 11 10 7 5 5 5 6 4 2 3 3 3 4 3 5 4 4 3 4 5 4 4 5 3 4 5 5 5 3
5 6 6 6 7 8 8 9 11 11 10 7 7 7 7 5 4 3 6 7 9 11 8 8 8 7 8 8 9 10 10 11 12 11 10 10 7 7 9 8 7 6 6 6 6 5 7 6 6 6 7 7 8 7 9 12 12 11 10 6 5 6 5 4 4 3 4 3 3 3 4 5 4 4 5 6 5 5 5 2 3 5 5 5 0
3 4 3 5 6 8 9 9 8 7 10 13 12 9 10 10 9 9 13 13 12 10 10 10 6 7 8 9 9 10 12 11 11 11 9 7 7 8 8 8 8 7 7 6 7 6 6 6 6 6 6 7 6 9 9 11 11 11 11 9 5 4 4 4 4 3 3 4 3 3 2 4 4 4 4 5 6 6 5 3 3 4 3 2 3
8 2 2 5 4 3 3 7 8 9 8 9 11 14 16 14 13 14 17 14 10 11 11 11 9 8 9 10 10 10 11 10 8 7 9 8 7 7 7 9 8 9 8 7 7 6 6 6 6 6 6 7 8 11 8 9 10 11 10 9 5 4 4 5 5 4 3 3 3 2 2 2 2 5 5 4 5 6 5 4 3 2 4 6 5
13 13 11 2 3 4 4 4 5 7 9 9 10 12 12 10 12 17 16 11 10 11 12 12 10 9 10 11 11 12 11 8 9 10 10 9 7 8 8 9 9 9 8 8 7 7 7 7 6 5 5 6 6 7 12 9 10 11 10 9 8 6 6 4 5 5 4 4 1 1 1 3 5 7 6 5 3 5 5 4 5 4 5 7 6
10 10 10 10 7 5 4 3 2 0 2 5 8 11 10 10 15 17 10 8 9 9 10 10 10 10 10 10 11 12 11 9 9 8 8 8 8 8 8 9 9 10 9 9 8 8 7 8 9 6 6 6 5 5 10 14 10 11 10 9 8 9 9 5 5 5 3 3 3 2 1 2 7 7 7 6 5 3 4 4 3 4 5 5 4
8 8 8 8 9 9 7 2 3 3 2 3 6 10 12 15 17 10 7 8 8 8 8 9 9 9 10 10 9 9 9 9 8 10 10 8 8 9 8 7 9 9 9 9 8 7 9 8 8 8 7 5 5 4 6 10 13 11 11 10 9 9 8 8 5 3 3 3 2 3 2 4 6 7 6 5 4 5 5 4 1 2 4 3 3
5 6 5 9 9 9 10 11 8 9 10 11 10 7 11 15 10 5 6 7 8 8 9 10 9 8 9 8 8 8 9 9 10 10 11 10 10 9 9 9 9 9 9 9 8 7 7 8 8 7 7 6 6 5 6 7 9 10 8 10 10 10 11 9 7 6 6 6 5 4 4 4 5 4 4 4 3 1 3 4 3 2 2 2 1
9 5 2 7 11 8 2 6 11 9 5 2 4 6 9 9 9 5 4 1 0 2 4 5 7 7 6 7 9 9 8 7 8 9 8 9 9 10 9 9 10 10 10 9 8 9 8 8 8 9 7 7 7 6 6 6 7 8 7 8 8 7 10 9 6 5 5 4 3 3 3 4 4 4 4 4 3 3 3 2 2 1 1 2 2
7 6 6 5 5 4 7 10 9 3 4 2 2 1 2 3 5 6 7 8 9 9 9 9 9 7 6 7 8 9 10 8 9 9 10 10 9 10 11 12 13 13 12 10 9 10 10 11 11 9 8 7 7 6 8 8 8 8 7 7 6 6 6 6 6 5 4 2 2 3 3 2 2 3 3 3 3 2 2 2 1 1 1 2 3
10 9 7 7 6 7 7 7 5 1 1 1 2 1 1 2 2 3 4 9 10 12 11 8 5 6 8 7 6 6 8 7 6 6 3 3 3 7 7 6 5 9 12 14 12 11 12 11 10 11 12 10 7 8 10 9 10 11 11 9 8 8 7 6 6 8 5 2 2 3 3 3 2 2 1 2 3 3 3 2 2 0 0 2 3
9 8 9 10 9 8 8 8 6 6 6 5 4 3 3 3 3 2 9 9 9 6 3 3 4 6 6 5 2 3 8 8 6 6 7 7 8 1 7 9 9 11 12 11 14 14 14 12 11 10 12 15 15 13 12 15 15 16 15 14 13 14 13 9 9 11 6 4 3 3 2 2 1 2 2 2 2 2 3 3 2 1 1 1 3
11 11 12 12 10 10 8 7 7 7 8 8 7 4 1 2 3 5 7 10 7 1 3 2 2 4 6 9 10 8 7 7 9 10 9 10 8 3 9 1 8 10 12 14 12 8 12 12 14 11 4 4 7 12 17 15 14 14 15 15 14 15 15 15 13 9 4 5 4 4 3 1 1 2 3 3 3 3 3 3 3 1 0 1 2
Wind_Direction
188 193 191 179 190 189 188 185 188 187 186 182 178 182 183 184 181 193 189 169 163 162 167 170 178 175 186 212 227 226 213 212 227 232 233 241 246 247 248 248 250 250 250 242 246 250 253 265 276 286 296 301 298 291 298 310 311 291 284 284 290 320 320 336 336 307 308 306 290 299 305 304 303 314 2 348 3 354 17 1 1 16 14 5 352
176 202 216 191 198 184 185 188 186 184 188 181 184 185 186 182 188 191 171 176 177 181 179 180 185 188 181 196 196 204 200 208 233 231 232 235 238 244 251 253 252 250 250 237 244 242 257 264 274 280 293 299 291 288 302 323 313 294 298 317 313 324 304 348 332 342 6 335 320 319 297 300 307 322 3 341 358 19 357 26 39 38 27 14 6
193 206 210 202 193 192 177 188 189 187 182 183 189 184 184 187 192 178 180 181 187 179 170 188 194 198 194 189 183 207 212 211 227 238 236 251 253 248 247 248 245 251 247 240 240 243 245 261 272 280 286 300 315 317 335 320 301 314 332 338 318 337 303 306 353 35 321 320 281 306 324 330 342 345 359 358 330 343 9 34 28 26 18 17 5
195 198 210 207 192 192 181 186 187 185 182 186 185 186 187 189 184 177 184 186 182 186 189 194 190 194 212 146 162 168 181 213 231 265 270 265 264 252 252 249 246 250 248 240 240 246 243 252 270 277 281 313 316 317 321 317 334 337 350 6 353 349 351 312 357 15 20 353 343 337 308 323 314 16 344 319 335 339 26 31 22 18 18 12 7
188 198 208 209 198 190 190 187 184 186 186 185 186 187 190 189 186 181 182 186 187 187 189 174 159 160 150 82 78 113 290 356 6 303 243 246 264 268 256 241 238 241 244 238 233 242 243 245 256 271 289 336 313 309 294 308 317 339 14 22 33 12 334 319 335 12 24 35 4 337 337 355 344 324 338 297 350 356 10 16 11 12 7 0 4
188 196 203 205 205 189 186 190 188 188 189 189 186 188 190 190 185 178 180 184 187 189 176 163 179 176 164 176 202 212 226 219 230 242 255 242 238 263 276 251 234 235 234 235 235 241 247 240 250 274 313 335 316 272 291 299 38 37 32 29 27 15 313 357 356 360 4 22 27 52 278 311 323 328 327 323 343 315 324 16 10 355 351 349 1
190 197 204 203 205 200 187 191 193 189 191 187 186 188 191 189 184 179 181 188 187 178 169 166 170 180 187 191 192 196 208 233 228 234 234 248 243 266 270 270 222 227 241 228 240 245 249 251 258 289 323 308 268 300 23 67 61 53 35 45 36 23 22 37 27 360 340 11 355 358 7 13 345 360 2 310 323 341 5 2 347 339 340 353 3
187 193 200 205 204 204 198 190 192 191 187 185 186 186 189 188 182 183 185 185 187 168 172 175 178 185 189 197 195 200 201 226 221 237 251 267 277 262 269 268 240 216 237 238 238 244 252 266 285 11 328 277 301 78 87 80 76 59 52 50 46 42 48 55 47 23 27 347 353 359 354 1 15 45 33 328 304 328 327 342 334 340 330 2 2
189 189 199 201 201 202 200 194 192 186 185 186 186 186 186 186 185 183 184 184 182 173 175 185 185 184 188 186 197 215 211 226 226 224 235 234 246 264 262 263 252 230 222 233 235 234 236 257 27 357 290 325 105 99 90 78 68 61 49 46 49 47 47 61 62 35 29 28 352 3 352 1 357 15 8 8 5 332 315 331 327 329 323 353 359
192 189 200 204 199 193 194 186 184 188 185 184 185 181 181 179 180 180 187 185 182 178 180 185 189 178 180 188 197 216 216 240 225 247 242 230 234 255 259 260 245 237 235 233 238 229 228 94 60 274 75 115 102 105 100 85 72 68 62 65 63 65 44 51 58 41 39 35 39 21 33 360 13 4 12 359 355 22 336 327 323 333 338 333 332
195 190 197 202 204 193 173 187 183 180 181 182 182 181 176 175 178 184 191 185 180 182 178 186 186 180 189 189 196 206 211 206 227 252 242 240 230 247 247 257 269 253 254 252 249 22 136 170 199 117 110 109 106 100 90 87 81 78 76 71 63 60 53 48 45 39 37 31 32 39 40 38 36 26 3 1 355 344 342 339 331 327 317 315 336
193 191 191 195 197 202 198 193 178 179 176 180 183 178 176 177 177 187 186 183 184 181 181 185 184 190 193 189 197 206 197 196 207 230 220 219 225 243 270 293 275 282 282 287 300 158 151 154 123 107 105 108 97 95 94 92 89 87 79 73 67 58 52 56 51 46 35 31 35 33 38 40 40 22 4 7 10 356 341 332 347 337 320 319 318
194 192 186 188 196 198 200 196 180 176 181 180 180 178 176 175 179 180 187 185 185 178 183 184 185 191 192 195 204 202 197 197 204 220 216 210 217 248 285 275 286 309 281 273 262 185 184 150 125 121 112 101 103 98 95 94 94 89 84 74 66 58 49 56 66 57 46 43 34 36 41 42 37 13 15 13 14 16 32 4 340 348 323 318 331
194 192 189 188 196 199 201 194 184 181 180 180 177 176 175 177 178 183 190 185 182 181 183 181 192 195 194 195 200 198 202 201 210 213 216 212 194 214 220 236 253 242 280 259 242 195 129 118 114 110 107 105 101 99 99 97 95 91 84 78 73 62 57 57 55 52 49 50 43 33 35 33 27 16 18 25 21 20 20 14 343 340 323 328 320
194 195 193 191 195 199 199 196 189 182 180 179 178 176 174 176 178 186 186 186 182 186 181 188 194 198 195 199 198 197 204 202 213 214 207 203 204 213 237 223 209 222 222 275 88 112 109 107 111 111 110 105 103 104 101 95 91 92 85 87 84 67 52 54 46 41 43 38 38 30 27 30 11 14 12 20 13 21 19 10 13 5 355 355 358
194 197 196 194 195 196 200 198 189 181 179 178 178 176 177 179 180 186 185 184 187 184 190 191 197 195 192 194 202 201 204 202 217 216 208 201 197 200 216 211 223 220 187 106 105 113 118 113 107 104 107 107 107 108 107 101 97 92 83 74 77 59 64 54 42 44 45 37 34 22 28 13 10 7 12 8 7 3 4 20 27 35 19 356 356
193 198 197 194 193 196 198 197 190 182 179 181 180 178 179 177 180 186 188 185 186 188 191 194 193 187 196 198 199 201 201 203 209 215 212 190 176 179 166 226 235 214 122 118 109 94 105 108 106 106 101 105 105 104 103 102 97 94 95 90 84 65 66 60 42 50 42 31 37 28 18 6 6 2 14 9 4 1 7 15 37 36 25 12 354
196 197 195 192 192 193 196 198 191 186 184 182 180 179 179 178 180 183 182 184 193 192 194 192 188 194 195 199 202 201 200 204 204 213 194 155 148 150 152 172 226 165 129 112 108 106 99 104 106 108 110 109 110 108 105 103 99 92 92 86 87 80 75 55 45 55 42 30 33 30 14 16 1 8 13 8 13 9 10 18 27 27 35 24 4
194 195 193 194 192 193 197 198 192 186 183 183 178 176 177 181 183 182 184 189 189 191 193 193 190 193 194 198 197 200 203 201 200 195 175 168 171 172 185 211 151 126 118 118 115 109 109 107 112 114 113 113 112 110 108 102 98 107 110 103 86 78 77 69 40 52 38 35 31 32 16 16 3 3 17 15 22 25 18 22 31 30 37 29 19
195 194 194 193 192 191 193 195 193 184 181 179 176 176 179 181 180 188 192 190 188 191 190 191 192 191 192 192 200 199 195 195 191 180 180 189 190 175 155 133 137 128 120 120 119 121 126 127 125 122 123 122 117 111 110 104 100 99 112 101 92 93 77 69 60 41 41 34 37 35 20 12 356 4 20 16 21 26 24 28 31 35 36 32 42
196 194 192 190 191 190 190 193 192 181 179 175 176 179 180 177 182 183 186 189 193 196 188 196 183 191 184 189 194 192 197 192 184 176 174 187 187 169 146 132 125 131 132 127 125 129 132 128 127 129 129 127 120 116 112 112 116 114 108 111 109 93 89 69 64 50 35 36 40 36 17 11 352 17 21 20 31 33 27 31 35 37 34 29 33
195 197 192 191 191 189 186 188 187 176 174 176 177 177 176 179 184 185 185 189 191 189 194 190 188 187 189 189 193 191 190 182 181 174 177 188 180 155 139 127 127 139 137 134 133 134 133 131 129 129 127 123 116 115 127 131 128 125 115 132 115 102 93 78 67 56 34 32 41 35 16 5 3 21 23 26 30 35 32 33 34 35 34 31 27
191 194 192 185 186 189 189 186 183 177 176 175 175 178 180 180 180 180 179 192 190 193 189 183 184 186 193 190 183 188 185 183 181 175 184 184 170 145 141 135 138 136 133 136 138 137 137 133 126 127 127 125 123 129 142 136 135 131 128 123 119 111 101 85 73 60 47 30 42 34 16 0 359 22 26 25 20 33 32 36 33 33 35 32 32
169 175 169 168 165 134 87 191 183 179 172 174 175 178 178 177 179 176 188 188 185 176 176 180 186 194 191 183 187 186 184 186 184 181 181 179 159 149 142 138 141 139 134 132 135 137 134 136 132 131 132 127 133 148 146 145 144 139 135 132 118 105 95 83 69 54 50 42 45 38 9 359 3 23 26 23 20 32 31 31 30 30 35 29 18
161 162 150 132 144 164 172 184 184 176 175 174 171 177 176 176 175 179 189 184 181 175 176 185 186 187 186 189 192 186 189 190 187 180 181 169 159 150 149 145 145 139 134 134 133 135 134 138 140 144 139 143 154 154 145 142 140 139 134 126 110 92 76 72 70 65 58 62 55 55 14 358 6 22 27 27 15 34 29 34 32 26 32 30 19
161 146 144 153 152 145 126 142 138 171 169 164 167 172 176 174 179 181 181 175 180 179 186 183 183 184 189 193 194 191 197 195 189 187 178 167 159 155 151 150 151 144 140 140 142 149 146 141 138 141 143 147 152 152 146 148 144 130 111 101 90 80 75 68 65 60 63 62 67 53 39 8 10 24 33 31 21 37 35 37 34 29 24 25 24
166 160 154 143 126 81 77 209 149 149 132 140 144 148 157 173 181 183 177 177 177 177 178 179 185 191 190 196 193 198 197 196 197 188 172 162 160 157 154 157 156 149 148 146 150 142 142 138 140 138 147 149 150 147 145 144 138 125 121 117 95 86 73 73 64 67 65 62 52 47 35 19 357 5 46 51 41 41 45 46 39 34 29 35 42
155 145 149 148 127 100 130 202 199 172 133 130 138 147 156 165 182 186 174 172 175 174 177 182 184 190 196 198 199 194 194 194 186 169 169 167 157 155 157 151 146 150 152 153 152 145 137 138 139 143 144 148 144 142 146 142 135 130 121 108 108 101 99 83 77 64 57 53 44 39 22 3 338 314 81 109 67 56 45 54 39 43 37 43 48
171 164 149 146 162 158 164 186 220 195 149 118 132 137 134 155 162 167 175 190 181 175 181 184 185 192 200 197 192 191 185 175 164 160 159 161 161 155 152 150 149 142 136 141 139 139 137 132 132 140 149 150 149 154 153 149 136 126 115 114 107 108 111 110 91 78 52 42 40 22 7 349 3 26 47 66 76 83 68 59 51 47 45 45 48
180 170 167 165 166 166 169 172 193 230 181 115 356 89 146 160 175 174 179 180 170 188 183 185 192 201 195 184 183 183 176 167 160 163 164 162 160 158 154 150 147 142 139 140 141 139 142 145 144 152 153 157 158 155 174 163 150 135 127 115 108 104 111 115 114 96 60 50 29 13 344 4 22 21 33 48 58 68 69 70 73 67 57 53 49
173 172 175 172 180 184 162 189 187 187 183 170 175 317 352 98 166 169 171 167 174 191 195 191 202 197 181 174 176 182 169 175 171 161 163 161 161 158 152 145 142 145 148 149 144 145 147 150 156 157 161 162 165 184 178 160 151 142 130 124 119 117 104 103 106 99 82 43 22 354 347 4 17 13 20 36 54 65 66 69 66 63 63 65 54
173 175 173 175 188 195 174 194 185 166 163 169 152 109 1 13 17 19 66 146 172 194 206 211 205 176 176 179 182 172 174 175 164 168 165 167 161 157 155 151 148 148 152 143 150 152 149 153 153 157 157 163 166 186 157 153 148 146 140 125 118 117 110 106 111 104 82 48 27 359 5 17 4 38 56 20 33 49 58 70 74 69 62 53 50
175 176 175 180 187 187 186 181 175 152 135 114 101 81 22 80 96 135 151 162 193 209 210 212 190 182 184 183 176 175 176 171 174 166 164 164 167 162 157 156 162 158 145 158 157 150 156 157 157 157 160 163 167 166 150 152 147 137 131 119 103 106 113 109 110 108 86 59 8 359 23 41 5 49 49 32 28 26 51 66 63 55 51 51 40
182 184 174 178 186 182 181 171 160 154 138 118 121 128 145 155 164 171 157 168 183 213 213 204 191 196 189 184 179 177 178 176 166 161 163 169 173 177 164 155 147 150 161 155 152 157 156 160 161 162 154 155 149 163 154 149 141 128 119 112 88 106 98 104 110 104 95 81 20 35 50 50 36 66 50 48 47 50 56 51 46 48 50 44 43
177 178 175 167 166 152 140 151 156 149 140 119 112 133 140 128 83 63 83 140 184 190 189 175 193 206 198 187 182 181 178 170 165 163 168 177 181 165 159 162 165 169 171 172 167 160 160 159 159 151 146 147 171 157 151 143 135 123 113 108 104 104 99 96 95 79 86 83 55 50 66 84 72 62 67 91 79 81 73 69 59 54 49 49 47
193 182 175 166 166 160 158 156 146 132 119 119 121 126 113 63 54 12 5 52 237 213 177 162 180 195 206 201 188 182 173 166 165 168 174 181 181 177 171 166 160 159 139 122 137 149 159 156 150 151 150 151 160 152 149 141 133 125 114 106 105 105 105 101 81 78 82 70 59 42 72 79 66 67 39 70 106 107 84 75 65 44 44 45 47
209 188 185 181 166 157 156 147 153 148 142 156 145 106 64 85 84 100 287 295 236 229 225 191 185 192 204 205 195 183 175 172 171 172 182 185 183 178 169 162 161 167 161 164 164 162 153 154 154 155 154 146 146 155 147 141 132 124 110 106 107 103 102 88 74 64 63 80 77 60 85 86 66 58 43 79 117 114 84 78 69 57 44 51 48
222 186 160 165 154 144 163 161 160 156 142 146 135 97 55 13 78 113 246 258 268 253 221 216 211 200 204 202 199 186 179 176 178 187 189 190 186 176 174 171 171 167 170 165 150 146 153 159 159 157 158 149 146 159 150 143 137 137 132 127 125 114 93 68 51 45 44 65 114 123 125 86 84 65 50 92 119 107 92 79 64 56 49 48 46
209 197 181 173 174 168 173 185 160 147 152 154 174 165 181 187 194 158 243 282 278 265 248 223 216 208 203 201 200 196 183 180 189 196 190 184 185 183 169 162 160 151 148 137 146 143 147 152 153 145 160 152 150 160 154 147 144 142 135 126 126 109 118 120 106 63 32 52 44 60 84 86 93 81 81 100 99 103 101 96 89 71 63 54 30
214 224 189 176 166 156 165 179 186 166 142 151 178 179 193 207 207 224 247 245 249 251 239 228 226 206 201 200 195 195 193 190 196 196 193 191 166 148 158 157 146 140 139 147 142 147 151 154 150 157 165 157 154 157 161 157 154 148 140 131 108 131 131 125 117 125 89 45 56 45 52 51 67 85 97 104 105 105 112 124 86 70 71 69 6
252 191 147 143 175 180 175 180 193 178 170 177 184 185 207 208 204 198 225 228 229 238 256 252 212 199 202 204 200 198 198 202 198 193 183 165 161 159 144 149 145 141 140 140 146 145 144 144 153 161 151 157 165 160 162 166 157 147 148 138 144 131 130 137 134 115 109 109 82 60 22 60 59 91 108 119 124 118 116 102 76 87 53 126 132
20 25 127 125 146 174 179 181 172 163 174 201 192 194 206 202 202 214 225 226 223 232 237 244 236 214 207 204 205 206 204 200 190 168 170 168 150 142 145 149 147 150 148 144 146 150 148 145 150 162 159 162 175 170 157 166 159 158 156 148 139 152 157 144 121 118 116 113 111 85 47 52 91 99 94 115 129 130 121 88 74 105 131 114 82
27 22 6 13 157 168 178 172 173 181 184 197 212 220 218 206 211 223 224 219 221 226 234 238 236 219 210 208 206 203 200 193 188 185 172 158 148 144 146 148 148 148 147 147 153 153 151 148 153 165 159 170 175 171 162 160 173 167 167 168 154 143 145 131 134 145 158 150 177 89 45 129 114 95 96 103 129 135 101 105 128 97 96 110 111
43 33 14 13 23 25 24 346 358 136 185 212 213 225 229 223 227 229 219 209 212 216 223 229 231 224 214 213 210 204 197 188 184 167 157 148 154 151 149 156 154 153 155 156 162 160 157 159 163 161 176 179 172 154 168 170 171 179 182 175 160 155 152 151 148 154 166 162 149 144 171 72 86 92 95 92 76 73 96 110 102 125 87 56 65
39 28 23 28 28 11 351 279 252 310 323 260 239 234 233 232 236 231 221 216 210 212 214 224 228 226 221 218 212 203 191 183 170 161 159 159 153 155 151 159 157 160 163 163 165 165 166 165 165 173 178 168 161 156 157 174 176 181 184 182 176 165 155 145 146 154 143 170 163 128 98 104 98 97 98 89 83 92 104 103 28 43 80 50 47
63 90 39 40 13 7 3 356 23 33 11 6 353 304 264 251 260 246 225 213 202 201 210 220 224 222 223 214 205 201 193 183 168 172 174 173 165 163 162 162 164 166 165 165 165 164 163 163 171 174 170 165 164 156 159 168 184 182 178 187 179 179 170 176 167 161 174 163 162 167 149 112 103 118 115 103 99 81 137 132 118 104 99 104 100
354 356 87 150 154 142 83 347 360 357 14 19 306 2 350 323 305 274 257 287 189 237 250 245 236 231 216 203 200 197 191 180 169 169 168 169 168 167 161 164 169 165 167 170 164 163 160 162 171 178 171 165 166 159 162 168 167 167 180 181 175 190 183 175 165 162 157 138 175 167 106 108 108 106 108 113 113 115 86 58 44 6 91 109 142
337 333 354 5 22 66 129 148 151 206 277 300 333 267 192 255 232 187 172 165 172 181 194 198 199 194 195 195 204 197 179 185 188 179 172 175 176 174 172 175 175 172 169 171 164 167 169 174 179 172 166 166 168 177 182 179 172 166 163 161 166 167 175 177 170 165 134 132 110 93 90 85 120 101 115 104 72 66 89 100 57 5 3 111 127
344 340 346 351 356 5 15 39 65 127 181 203 118 296 320 35 348 300 228 198 211 210 201 203 176 166 174 174 186 197 190 197 186 183 66 42 156 182 183 175 185 178 175 168 172 175 180 181 168 170 169 174 175 187 199 186 169 168 161 163 158 168 171 190 180 153 118 110 115 98 73 65 51 80 72 137 116 115 100 81 75 12 322 96 123
347 341 347 349 354 359 4 9 20 6 353 354 335 344 3 18 42 315 295 274 235 216 206 165 112 85 62 52 23 84 58 64 62 56 51 40 22 88 189 178 178 185 184 181 167 174 181 172 176 184 175 172 187 195 171 172 175 166 157 167 172 167 172 173 160 159 145 126 137 136 108 132 124 139 167 214 203 140 151 154 138 59 64 130 145
353 357 358 354 347 348 353 4 8 355 352 344 331 335 52 84 35 298 268 270 286 358 49 42 115 117 111 108 109 108 117 152 179 160 151 169 177 33 17 174 181 172 178 175 190 162 141 157 175 174 156 61 101 140 165 174 165 167 170 177 178 174 170 163 151 150 150 158 162 173 168 143 148 171 199 200 200 183 182 176 177 153 337 219 187